User: anonymous   Login
Location: Roanoke
(37.2710°N, 79.9420°W)
Time: 17:38:56
(UTC-04:00)
Language:

FENGYUN 3A - Orbit

View from above orbital plane
View from above orbital plane
View from above satellite
View from above satellite

Ground track
Ground track

The orbit data is extracted from the following two-line orbital elements,

1 32958U 08026A   17235.52193614  .00000034  00000-0  35405-4 0  9990
2 32958  98.4046 260.8263 0010927  84.5136 275.7290 14.19670339478883
Epoch (UTC): 23 August 2017 12:31:35
Eccentricity: 0.0010927
inclination: 98.4046°
perigee height: 818 km
apogee height: 834 km
right ascension of ascending node: 260.8263°
argument of perigee: 84.5136°
revolutions per day: 14.19670339
mean anomaly at epoch: 275.7290°
orbit number at epoch: 47888

The dashed part of the orbit path shows where the satellite is in the earth's shadow,  

DLR